GW3710 Weather Reports


time (UTC)temp
F
wind
direction
speed
knots
gust
knots
rain 1hr
in
rain 24hr
in
rain mn
in
humidity
%
barometer
mb
20260503071828 51 221 2.6 3.5 0.00 0.00 0.00 50 1008.8
20260503071326 51 194 0.0 5.2 0.00 0.00 0.00 50 1008.7
20260503070821 51 227 1.7 3.5 0.00 0.00 0.00 50 1008.7
20260503070320 51 229 3.5 5.2 0.00 0.00 0.00 49 1009.0
20260503060238 50 184 0.9 1.7 0.00 0.00 0.00 50 1009.6
20260503054726 50 199 0.0 0.9 0.00 0.00 0.00 51 1009.9
20260503054223 50 219 1.7 2.6 0.00 0.00 0.00 51 1009.7
20260503053721 50 210 1.7 2.6 0.00 0.00 0.00 51 1009.7
20260503053219 50 199 1.7 2.6 0.00 0.00 0.00 51 1009.7
20260503052715 50 176 2.6 3.5 0.00 0.00 0.00 52 1009.9
20260503052212 50 202 1.7 2.6 0.00 0.00 0.00 51 1010.0
20260503051707 50 185 4.3 6.1 0.00 0.00 0.00 51 1009.8
20260503051205 50 209 0.9 3.5 0.00 0.00 0.00 52 1010.2
20260503050701 50 206 1.7 2.6 0.00 0.00 0.00 53 1010.2
20260503050158 50 212 0.9 1.7 0.00 0.00 0.00 54 1010.4
20260503045655 49 181 0.0 1.7 0.00 0.00 0.00 54 1010.3
20260503045152 50 184 0.9 1.7 0.00 0.00 0.00 53 1010.3
20260503044648 49 171 0.0 1.7 0.00 0.00 0.00 54 1010.4
20260503044141 50 183 0.9 1.7 0.00 0.00 0.00 54 1010.4
20260503043637 50 205 1.7 2.6 0.00 0.00 0.00 53 1010.3
20260503043134 50 170 0.0 0.9 0.00 0.00 0.00 54 1010.4
20260503042631 50 194 0.9 3.5 0.00 0.00 0.00 54 1010.5
20260503042127 50 184 0.9 2.6 0.00 0.00 0.00 54 1010.3
20260503041623 50 198 0.9 1.7 0.00 0.00 0.00 53 1010.5
20260503041120 50 189 0.9 5.2 0.00 0.00 0.00 52 1010.5
20260503040613 50 197 0.0 0.9 0.00 0.00 0.00 53 1010.3
20260503040110 50 168 1.7 1.7 0.00 0.00 0.00 53 1010.5
20260503035606 49 214 2.6 2.6 0.00 0.00 0.00 52 1010.3
20260503035104 49 178 0.9 2.6 0.00 0.00 0.00 53 1010.4
20260503034601 47 162 1.7 2.6 0.00 0.00 0.00 54 1010.6
20260503034058 46 152 0.0 0.9 0.00 0.00 0.00 58 1010.5
20260503033555 46 166 0.0 0.0 0.00 0.00 0.00 61 1010.7
20260503033053 46 166 0.0 0.0 0.00 0.00 0.00 61 1010.8
20260503032551 47 166 0.0 1.7 0.00 0.00 0.00 59 1010.9
20260503032049 47 162 0.9 0.9 0.00 0.00 0.00 58 1010.7
20260503031546 47 165 0.9 0.9 0.00 0.00 0.00 56 1010.9
20260503031044 44 183 0.9 1.7 0.00 0.00 0.00 59 1011.1
20260503030539 42 170 0.0 0.9 0.00 0.00 0.00 65 1011.0
20260503030037 43 170 0.0 0.0 0.00 0.00 0.00 66 1011.3
20260503025533 43 170 0.0 0.0 0.00 0.00 0.00 62 1011.2
20260503025032 44 170 0.0 0.0 0.00 0.00 0.00 63 1011.2
20260503024527 44 170 0.0 0.0 0.00 0.00 0.00 63 1011.4
20260503024024 44 170 0.0 0.0 0.00 0.00 0.00 60 1011.3
20260503023520 44 170 0.0 0.0 0.00 0.00 0.00 59 1011.3
20260503023018 45 170 0.0 0.9 0.00 0.00 0.00 57 1011.3
20260503022514 45 170 0.9 0.9 0.00 0.00 0.00 56 1011.3
20260503022009 46 170 0.0 0.9 0.00 0.00 0.00 59 1011.6
20260503021506 45 170 0.9 0.9 0.00 0.00 0.00 53 1011.4
20260503021003 46 169 0.0 0.0 0.00 0.00 0.00 54 1011.6
20260503020500 47 169 0.0 0.0 0.00 0.00 0.00 54 1011.5
20260503015956 47 169 0.9 1.7 0.00 0.00 0.00 51 1011.6
20260503015453 46 170 0.9 0.9 0.00 0.00 0.00 54 1011.5
20260503014950 46 170 0.0 0.0 0.00 0.00 0.00 54 1011.4
20260503014446 47 170 0.0 0.9 0.00 0.00 0.00 52 1011.4
20260503013945 48 170 0.0 0.9 0.00 0.00 0.00 51 1011.4
20260503013441 48 169 0.0 0.9 0.00 0.00 0.00 49 1011.4
20260503012938 49 171 0.9 1.7 0.00 0.00 0.00 48 1011.5
20260503012432 50 171 0.9 1.7 0.00 0.00 0.00 46 1011.5
20260503011927 51 183 0.9 0.9 0.00 0.00 0.00 45 1011.4
20260503011424 51 184 0.0 0.9 0.00 0.00 0.00 45 1011.5
20260503010921 52 184 0.0 0.9 0.00 0.00 0.00 44 1011.5
20260503010418 52 193 0.0 0.9 0.00 0.00 0.00 43 1011.6
20260503005915 53 181 0.0 1.7 0.00 0.00 0.00 41 1011.7
20260503005412 54 207 1.7 1.7 0.00 0.00 0.00 40 1011.7
20260503004908 54 204 0.9 1.7 0.00 0.00 0.00 38 1011.6
20260503004405 55 206 0.9 2.6 0.00 0.00 0.00 38 1011.5
20260503003903 55 213 1.7 1.7 0.00 0.00 0.00 37 1011.6
20260503003359 55 208 0.9 1.7 0.00 0.00 0.00 38 1011.5
20260503002856 56 213 0.9 3.5 0.00 0.00 0.00 36 1011.7
20260503002354 56 220 2.6 2.6 0.00 0.00 0.00 35 1011.6
20260503001850 56 202 0.9 2.6 0.00 0.00 0.00 36 1011.6
20260503001346 56 249 1.7 3.5 0.00 0.00 0.00 36 1011.6
20260503000844 57 216 1.7 3.5 0.00 0.00 0.00 35 1011.6
20260503000336 58 213 1.7 3.5 0.00 0.00 0.00 33 1011.8
20260502235832 58 191 1.7 3.5 0.00 0.00 0.00 34 1011.6
20260502235324 58 213 0.9 3.5 0.00 0.00 0.00 33 1011.5
20260502234820 58 166 1.7 5.2 0.00 0.00 0.00 32 1011.5
20260502234317 59 187 1.7 1.7 0.00 0.00 0.00 31 1011.8
20260502233814 59 207 1.7 8.7 0.00 0.00 0.00 32 1011.7
20260502233305 58 231 2.6 2.6 0.00 0.00 0.00 31 1011.6
20260502232802 58 295 1.7 5.2 0.00 0.00 0.00 31 1011.8
20260502232258 60 195 1.7 5.2 0.00 0.00 0.00 30 1011.7
20260502231754 60 321 3.5 5.2 0.00 0.00 0.00 30 1011.8
20260502231252 60 253 7.8 8.7 0.00 0.00 0.00 30 1011.7
20260502230751 60 230 1.7 5.2 0.00 0.00 0.00 32 1011.9
20260502230249 59 264 2.6 5.2 0.00 0.00 0.00 31 1011.9
20260502225745 58 211 1.7 6.1 0.00 0.00 0.00 32 1011.7
20260502225242 59 230 2.6 2.6 0.00 0.00 0.00 31 1012.1
20260502224738 58 199 1.7 3.5 0.00 0.00 0.00 33 1012.1
20260502224235 58 266 1.7 3.5 0.00 0.00 0.00 32 1012.1
20260502223732 58 222 3.5 6.1 0.00 0.00 0.00 31 1012.2
20260502223230 58 230 2.6 6.1 0.00 0.00 0.00 31 1012.2
20260502222727 59 248 4.3 6.1 0.00 0.00 0.00 30 1011.9
20260502222223 58 266 3.5 5.2 0.00 0.00 0.00 31 1012.2
20260502221719 59 316 5.2 12.2 0.00 0.00 0.00 30 1012.1
20260502221216 59 229 3.5 5.2 0.00 0.00 0.00 30 1012.3
20260502220712 60 291 5.2 13.0 0.00 0.00 0.00 29 1012.2
20260502220204 59 258 1.7 3.5 0.00 0.00 0.00 32 1012.2
20260502215701 59 278 5.2 7.8 0.00 0.00 0.00 30 1012.4
20260502215157 59 298 6.1 7.8 0.00 0.00 0.00 30 1012.3
20260502214655 57 265 3.5 7.0 0.00 0.00 0.00 32 1012.5
20260502214152 58 277 2.6 3.5 0.00 0.00 0.00 30 1012.4
20260502213649 60 278 4.3 7.0 0.00 0.00 0.00 29 1012.5
20260502213146 59 288 1.7 5.2 0.00 0.00 0.00 31 1012.5
20260502212645 60 233 3.5 6.1 0.00 0.00 0.00 30 1012.5
20260502212143 59 296 0.9 5.2 0.00 0.00 0.00 31 1012.6
20260502211638 59 232 2.6 5.2 0.00 0.00 0.00 32 1012.6
20260502211135 59 237 4.3 6.1 0.00 0.00 0.00 29 1012.7
20260502210633 60 310 7.0 9.6 0.00 0.00 0.00 29 1012.7
20260502210130 59 308 1.7 5.2 0.00 0.00 0.00 30 1012.9
20260502205626 59 351 3.5 7.0 0.00 0.00 0.00 30 1012.8
20260502205123 60 243 1.7 5.2 0.00 0.00 0.00 31 1013.2
20260502204620 59 202 0.9 5.2 0.00 0.00 0.00 34 1013.2
20260502204117 59 272 4.3 8.7 0.00 0.00 0.00 31 1013.2
20260502203614 60 326 4.3 9.6 0.00 0.00 0.00 29 1013.2
20260502203106 59 264 4.3 7.8 0.00 0.00 0.00 29 1013.3
20260502202601 59 116 0.9 2.6 0.00 0.00 0.00 28 1013.3
20260502202100 59 245 3.5 3.5 0.00 0.00 0.00 32 1013.5
20260502201555 58 188 5.2 7.0 0.00 0.00 0.00 30 1013.5
20260502201052 59 220 3.5 7.0 0.00 0.00 0.00 31 1013.4
20260502200547 58 4 4.3 9.6 0.00 0.00 0.00 32 1013.5
20260502200046 57 223 2.6 3.5 0.00 0.00 0.00 33 1013.5
20260502195543 57 241 2.6 5.2 0.00 0.00 0.00 33 1013.9
20260502195039 59 230 5.2 6.1 0.00 0.00 0.00 29 1013.8
20260502194536 59 226 1.7 3.5 0.00 0.00 0.00 31 1013.9
20260502194032 57 230 2.6 2.6 0.00 0.00 0.00 32 1014.1
20260502193530 57 193 1.7 7.0 0.00 0.00 0.00 33 1014.0
20260502193026 58 231 2.6 6.1 0.00 0.00 0.00 32 1014.3
20260502192522 58 218 3.5 7.8 0.00 0.00 0.00 32 1014.3
20260502192020 58 311 7.8 9.6 0.00 0.00 0.00 30 1014.3
20260502191516 58 301 3.5 9.6 0.00 0.00 0.00 33 1014.5
20260502191014 56 216 3.5 7.0 0.00 0.00 0.00 32 1014.3
20260502190511 58 224 1.7 7.0 0.00 0.00 0.00 29 1014.4
20260502190008 56 348 6.1 7.0 0.00 0.00 0.00 30 1014.4
20260502185503 58 278 5.2 7.8 0.00 0.00 0.00 29 1014.8
20260502185000 57 267 3.5 8.7 0.00 0.00 0.00 30 1014.6
20260502184455 56 289 2.6 8.7 0.00 0.00 0.00 33 1014.8
20260502183952 57 257 2.6 7.8 0.00 0.00 0.00 32 1014.9
20260502183448 55 239 3.5 7.8 0.00 0.00 0.00 33 1014.8
20260502182943 56 266 1.7 2.6 0.00 0.00 0.00 34 1014.9
20260502182439 55 231 1.7 2.6 0.00 0.00 0.00 35 1015.0
20260502181935 56 290 2.6 7.8 0.00 0.00 0.00 33 1015.2
20260502181434 56 321 5.2 9.6 0.00 0.00 0.00 33 1015.2
20260502180932 55 114 4.3 7.8 0.00 0.00 0.00 33 1015.4
20260502180429 56 227 4.3 8.7 0.00 0.00 0.00 31 1015.3
20260502170343 55 208 1.7 5.2 0.00 0.00 0.00 34 1015.8
20260502164329 54 223 3.5 6.1 0.00 0.00 0.00 36 1016.1
20260502163825 55 115 0.0 5.2 0.00 0.00 0.00 37 1016.4
20260502163322 53 218 3.5 7.0 0.00 0.00 0.00 36 1016.5
20260502162820 53 156 5.2 7.8 0.00 0.00 0.00 37 1016.4
20260502162316 53 177 3.5 5.2 0.00 0.00 0.00 37 1016.5
20260502161814 54 218 0.9 3.5 0.00 0.00 0.00 36 1016.5
20260502161309 53 106 0.0 1.7 0.00 0.00 0.00 38 1016.5
20260502160807 53 207 2.6 2.6 0.00 0.00 0.00 39 1016.6
20260502160301 54 231 1.7 3.5 0.00 0.00 0.00 37 1016.7
20260502152224 51 271 1.7 3.5 0.00 0.00 0.00 39 1017.2
20260502151721 51 168 0.9 3.5 0.00 0.00 0.00 42 1017.4
20260502151218 50 269 1.7 2.6 0.00 0.00 0.00 42 1017.3
20260502150716 49 195 4.3 7.0 0.00 0.00 0.00 40 1017.4
20260502150212 49 217 2.6 5.2 0.00 0.00 0.00 42 1017.3
20260502130555 41 185 0.9 0.9 0.00 0.00 0.00 69 1017.9
20260502123538 37 112 0.0 0.0 0.00 0.00 0.00 79 1017.9
20260502123034 36 112 0.0 0.0 0.00 0.00 0.00 78 1018.1
20260502122531 37 112 0.0 0.0 0.00 0.00 0.00 76 1018.0
20260502122029 36 112 0.0 0.0 0.00 0.00 0.00 76 1018.0
20260502121526 36 112 0.0 0.0 0.00 0.00 0.00 79 1017.9
20260502121023 35 112 0.0 0.0 0.00 0.00 0.00 81 1018.1
20260502120519 35 112 0.0 0.0 0.00 0.00 0.00 81 1018.3
20260502115514 33 112 0.0 0.0 0.00 0.00 0.00 81 1018.0
20260502115010 31 112 0.0 0.0 0.00 0.00 0.00 86 1018.0
20260502114507 30 112 0.0 0.0 0.00 0.00 0.00 88 1018.1
20260502114004 28 113 0.0 0.0 0.00 0.00 0.00 91 1017.9
20260502113501 28 112 0.0 0.0 0.00 0.00 0.00 94 1018.0
20260502113000 27 112 0.0 0.0 0.00 0.00 0.00 97 1017.9
20260502112457 25 112 0.0 0.0 0.00 0.00 0.00 97 1017.8
20260502111954 24 113 0.0 0.0 0.00 0.00 0.00 97 1017.7
20260502111451 24 113 0.0 0.0 0.00 0.00 0.00 97 1017.7
20260502110949 23 113 0.0 0.0 0.00 0.00 0.00 96 1017.9
20260502110446 23 113 0.0 0.0 0.00 0.00 0.00 96 1017.7
20260502105943 24 113 0.0 0.0 0.00 0.00 0.00 96 1017.8
20260502105441 24 113 0.0 0.0 0.00 0.00 0.00 96 1017.7
20260502104939 23 113 0.0 0.0 0.00 0.00 0.00 96 1017.8
20260502104435 23 113 0.0 0.0 0.00 0.00 0.00 95 1017.7
20260502103933 23 113 0.0 0.0 0.00 0.00 0.00 95 1017.8
20260502103430 23 113 0.0 0.0 0.00 0.00 0.00 95 1017.7
20260502102927 23 113 0.0 0.0 0.00 0.00 0.00 94 1017.8
20260502102424 24 113 0.0 0.0 0.00 0.00 0.00 94 1017.8
20260502101921 24 113 0.0 0.0 0.00 0.00 0.00 94 1017.9
20260502101419 24 113 0.0 0.0 0.00 0.00 0.00 94 1017.9
20260502100917 24 113 0.0 0.0 0.00 0.00 0.00 94 1018.0
20260502100416 24 113 0.0 0.0 0.00 0.00 0.00 94 1017.8
20260502091350 23 113 0.0 0.0 0.00 0.00 0.00 96 1017.9
20260502090848 23 113 0.0 0.0 0.00 0.00 0.00 96 1018.1
20260502090344 23 113 0.0 0.0 0.00 0.00 0.00 96 1018.1